{"data":{"norad_id":67432,"epoch":"2026-09-19T05:55:36.321888Z","epoch_age_seconds":183724,"freshness":"STALE","line1":"1 67432U 26005AE  26262.24694817  .00011320  00000+0  42026-3 0  9997","line2":"2 67432  42.9994 225.2905 0001171 276.9568  83.1150 15.27580318 38288","mean_motion":15.27580318,"eccentricity":0.0001171,"inclination_deg":42.9994,"raan_deg":225.2905,"arg_perigee_deg":276.9568,"mean_anomaly_deg":83.115,"bstar":0.00042026,"rev_number":3828,"period_min":94.26672908992,"perigee_km":482.24469905308,"apogee_km":483.85158861376,"semimajor_km":6861.1851438334,"source":"CELESTRAK","updated_at":"2026-09-20T09:00:43.525905Z"}}